Regional Weather Roundup
Issued by NWS

Home | Current Version | Previous Version | Graphics & Text | Print | Product List | Glossary On
Versions: 1 2 3 4 5 6 7 8 9 10 11 12 13 14 15 16 17 18 19 20 21 22 23 24 25 26 27 28 29 30 31 32 33 34 35 36 37 38 39 40 41 42 43 44 45 46 47 48 49 50
000
ASUS44 KMEG 240300
RWRTN
TENNESSEE HOURLY STATE WEATHER ROUNDUP
NATIONAL WEATHER SERVICE MEMPHIS TN
900 PM CST SUN NOV 23 2014

TNZ002-004-019-021-049-052-054-088>092-240400-
WEST TENNESSEE

CITY           SKY/WX    TMP DP  RH WIND       PRES   REMARKS
MEMPHIS INTL   CLOUDY    63  59  87 SW12G20   29.46F
NWS MEMPHIS      N/A     63 N/A N/A MISG        N/A
JACKSON        CLOUDY    61  57  87 SW16G23   29.47R
DYERSBURG      MOCLDY    59  48  67 S6        29.44S
UNION CITY     CLOUDY    57  57 100 SW13      29.41R
PARIS          CLOUDY    57  55  94 SW18      29.43R
LEXINGTON      CLOUDY    61  57  88 SW15      29.47R
SAVANNAH       CLOUDY    61  61 100 SW16      29.51R
$$

TNZ008-025-027-028-033-062-065-066-240400-
NORTH MIDDLE TENNESSEE

CITY           SKY/WX    TMP DP  RH WIND       PRES   REMARKS
NASHVILLE      LGT RAIN  62  59  90 SW16G23   29.45R
CLARKSVILLE    CLOUDY    61  58  90 SW15G25   29.39R
COOKEVILLE     CLOUDY    61  57  88 SW23      29.49R
CROSSVILLE     CLOUDY    59  53  80 S15G25    29.54R
$$

TNZ061-075-076-078-094-096-097-240400-
SOUTH MIDDLE TENNESSEE

CITY           SKY/WX    TMP DP  RH WIND       PRES   REMARKS
FAYETTEVILLE   CLOUDY    61  55  82 N14       29.56R
TULLAHOMA      CLOUDY    61  55  82 SW17      29.55R
WINCHESTER     CLOUDY    63  55  77 SW14      29.56R
SHELBYVILLE    CLOUDY    63  59  88 SW13G39   29.53R
$$

TNZ017-018-042-046-047-240400-
NORTHEAST TENNESSEE

CITY           SKY/WX    TMP DP  RH WIND       PRES   REMARKS
TRI CITIES     CLOUDY    57  51  80 SE6       29.63R
ELIZABETHTON   MOCLDY    55  48  76 CALM      29.66R
$$

TNZ012-013-036-069-073-074-240400-
CENTRAL EAST TENNESSEE

CITY           SKY/WX    TMP DP  RH WIND       PRES   REMARKS
KNOXVILLE      CLOUDY    62  53  72 S21G31    29.56S
OAK RIDGE      CLOUDY    60  55  83 SW9G18    29.58S
GATLINBURG     CLOUDY    64  50  59 SW14G26   29.57R
$$

TNZ083-085-099-240400-
SOUTHEAST TENNESSEE

CITY           SKY/WX    TMP DP  RH WIND       PRES   REMARKS
CHATTANOOGA    CLOUDY    60  56  86 S13       29.61R
$$

SKY/WX REPORTED AS FAIR MEANS FEW OR NO CLOUDS BELOW
12 THOUSAND FEET.



USA.gov is the U.S. government's official web portal to all federal, state and local government web resources and services.